{"data":{"norad_id":59673,"intl_designator":"2024-084V","name":"STARLINK-31871","alt_names":[],"object_type":"PAYLOAD","status":"ACTIVE","operator":null,"country":"US","launch_date":"2024-05-06","launch_site_code":"AFETR","launch_vehicle":null,"mission":null,"orbit_class":"UNKNOWN","rcs_meters":null,"size_class":null,"mass_kg":null,"dimensions":null,"purposes":["comms"],"wikipedia_slug":null,"has_3d_model":false,"image_url":null,"decayed_at":null,"tle_current":{"epoch":"2026-09-21T18:43:47.335008Z","epoch_age_seconds":60618,"freshness":"FRESH","line1":"1 59673U 24084V   26264.78040897  .00000827  00000+0  39565-4 0  9999","line2":"2 59673  43.0014  14.2870 0000981 252.5474 107.5270 15.27576504134364","mean_motion":15.27576504,"eccentricity":9.81e-5,"inclination_deg":43.0014,"raan_deg":14.287,"arg_perigee_deg":252.5474,"mean_anomaly_deg":107.527,"bstar":3.9565e-5,"rev_number":13436,"period_min":94.266964451818,"perigee_km":482.38648095834,"apogee_km":483.73264772426,"semimajor_km":6861.1965643413,"source":"CELESTRAK","updated_at":"2026-09-22T09:00:49.029869Z"}}}